CDT,Max TemperatureF,Mean TemperatureF,Min TemperatureF,Max Dew PointF,MeanDew PointF,Min DewpointF,Max Humidity, Mean Humidity, Min Humidity, Max Sea Level PressureIn, Mean Sea Level PressureIn, Min Sea Level PressureIn, Max VisibilityMiles, Mean VisibilityMiles, Min VisibilityMiles, Max Wind SpeedMPH, Mean Wind SpeedMPH, Max Gust SpeedMPH,PrecipitationIn, CloudCover, Events, WindDirDegrees
2012-10-1,77,68,59,60,57,48,100,79,36,29.79,29.73,29.70,10,10,7,21,11,31,0.10,6,Rain,344
2012-10-2,77,66,57,58,54,48,98,71,38,29.97,29.90,29.79,10,10,10,8,1,,0.00,3,,23
2012-10-3,80,67,55,59,57,54,99,75,42,30.09,30.03,29.97,10,10,8,7,1,,0.00,0,,135
2012-10-4,83,69,55,65,61,55,99,76,47,30.21,30.14,30.09,10,10,10,13,4,,0.00,0,,142
2012-10-5,85,74,62,68,64,62,100,77,50,30.14,30.07,29.98,10,9,5,13,6,,0.00,1,,168
2012-10-6,70,58,48,62,48,40,88,78,70,30.23,30.14,30.04,10,10,10,14,10,20,0.00,8,,35
2012-10-7,60,53,46,46,42,39,82,68,47,30.30,30.23,30.16,10,10,7,12,8,17,0.00,8,Rain,29
2012-10-8,64,54,46,47,46,41,95,85,48,30.28,30.22,30.14,10,10,6,9,6,,0.00,6,,30
2012-10-9,77,58,40,62,52,40,97,78,54,30.15,30.06,29.94,10,10,7,9,3,,0.00,4,,159
2012-10-10,76,70,66,66,63,59,100,83,59,30.19,30.10,30.03,10,10,10,10,4,,0.00,6,,94
2012-10-11,86,72,59,69,63,57,93,77,51,30.22,30.16,30.12,10,10,10,12,5,,0.00,3,,146
2012-10-12,85,74,63,66,64,60,100,80,45,30.25,30.18,30.15,10,10,6,13,5,,0.00,3,,148
2012-10-13,85,74,62,70,66,61,100,88,52,30.16,30.10,29.94,10,7,2,22,7,28,0.00,5,,153
2012-10-14,86,74,62,72,67,55,100,83,37,30.05,29.99,29.92,10,8,1,20,12,26,1.91,5,Rain-Thunderstorm,210
2012-10-15,78,66,53,58,54,47,99,71,35,30.11,30.05,29.98,10,10,5,7,1,,0.00,0,,67
2012-10-16,71,62,53,59,55,51,99,82,49,30.01,29.90,29.81,10,10,10,13,4,,0.00,0,,154
2012-10-17,83,71,59,69,63,57,95,76,60,29.79,29.69,29.58,10,10,6,17,12,26,0.00,4,,187
2012-10-18,77,65,49,58,44,29,88,54,18,29.96,29.90,29.73,10,10,9,14,5,18,0.00,0,,342
2012-10-19,76,60,46,45,37,28,82,49,17,29.97,29.93,29.88,10,10,10,18,6,24,0.00,0,,283
2012-10-20,83,64,44,53,47,41,91,59,22,29.97,29.90,29.85,10,9,2,15,4,17,0.00,0,,163
2012-10-21,86,74,63,66,61,56,81,69,49,30.02,29.97,29.91,10,10,10,16,10,,0.00,5,,159
2012-10-22,86,72,60,66,63,59,100,78,41,30.09,30.04,29.98,10,10,10,15,9,,0.00,2,,155
2012-10-23,82,71,60,66,63,60,100,87,49,30.08,30.02,29.97,10,6,0,10,5,,0.00,3,,154
2012-10-24,84,72,60,68,65,60,100,86,50,30.07,30.01,29.93,10,8,0,13,6,,0.00,4,Fog,166
2012-10-25,84,73,63,69,66,63,100,86,58,29.97,29.93,29.88,10,9,2,21,9,28,0.00,5,Rain,172
2012-10-26,62,56,46,63,50,43,100,90,82,30.25,30.12,29.96,10,8,1,18,12,24,0.11,8,Rain-Thunderstorm,6
2012-10-27,58,49,40,43,38,34,100,72,40,30.27,30.20,30.12,10,8,3,15,6,21,0.00,0,,3
2012-10-28,60,48,37,38,34,30,89,66,33,30.27,30.22,30.18,10,9,2,13,4,17,0.00,0,,12
2012-10-29,63,50,37,41,36,31,95,66,30,30.33,30.23,30.16,10,9,5,8,2,,0.00,0,,6
2012-10-30,71,53,36,46,39,36,96,72,28,30.15,30.08,29.99,10,9,2,9,1,,0.00,0,Rain,213
2012-10-31,78,60,44,56,50,42,94,72,40,30.01,29.99,29.95,10,10,7,13,4,,0.00,0,,193